loading
DOY 175 | 2024-06-23T11:46:29Z

THOR ABLESTAR R/B, 47

Orbit data source: Space-Track

THOR ABLESTAR R/B, 47 is space debris in LEO originally from a launch on Wed, 22 Jun 1960 UTC launched from the Air Force Eastern Test Range (AFETR). Debris objects in space refer to the collection of defunct objects orbiting the Earth. Examples of debris include non-operational satellites, rocket bodies, and fragments generated from explosions, collisions, or faulty payload assembly.

Loading next visibility...
Loading greatness...
THOR ABLESTAR R/B details
NORAD ID47
COSPAR ID
1960-007C
Orbit
LEO
Last TLE update1 day ago
Origin
Flag of USUSAF BMD (US)
ManufacturerAerojet
BusAblestar
MotorUnknown
Mass~600 kg wet, 600 kg dry
Launch date (UTC)
1960-06-22 (64 years ago)
Launch vehicleUnknown
Launch site
Air Force Eastern Test Range (AFETR)
Object type
Payload
Rocket body
Debris
Radar Cross Section3.4 m², Large (>1 m²)
Predictive object data (real-time)
Latitude-18.86383°
Longitude106.13633°
Altitude612.589 km
Speed7.626 km/s
Apparent Right ascension11h 34m 48s
Apparent Declination-29° 01' 38"
Sunlit
Object is in daylight
Predictive observer data (real-time)
Local Sidereal Time22:54:34
Azimuth319.727° NNW
Elevation-76.333°
Doppler factor1
Orbital elements
Apogee908.533 km
Perigee581.471 km
Semi-major axis7,123.139 km
Eccentricity0.0229577
Inclination66.6633°
RAAN192.3368°
Arg. of periapsis308.8544°
True anomaly51.25677°
Mean anomaly49.2269°
Mean motion3.61024 °/min
BSTAR0.00015289
Period99.72 mins
Definitive object data (Epoch: 2024-06-22T10:55:30.628Z)
Latitude0.00001°
Longitude117.34088°
Altitude644.125 km
Speed7.591 km/s
True Right ascension12h 49m 20s
True Declination0° 00' 00"
Sunlit
Object was in daylight at TLE epoch
TLE from 1 day ago
0 THOR ABLESTAR R/B
1 00047U 60007C   24174.45521561  .00000601  00000-0  15289-3 0  9996
2 00047  66.6633 192.3368 0229577 308.8544  49.2269 14.43598247346124
Epoch: 2024-06-22T10:55Z
No data available

THOR ABLESTAR R/B Visibility forecast

Observer location: 39.9160978°, -105.1181434, 0m alt.

THOR ABLESTAR R/B is not visible in the next 10 days
Span
Click to sort rows by Start time (UTC) header in descending order
Start Az.
Max El. time (UTC)
Max El. Az.
Max El.
End time (UTC)
End Az.